Flag for Germany Weather past 2 weeks in Freising, Bavaria, Germany

Now
89 °F

Passing clouds.


Feels Like: 87 °F
Forecast: 58 / 86 °F
Wind: 3 mph from West

Location: Muenchen Flughafen

Current Time: Aug 31, 2015 at 6:29:53 PM

Latest Report: Aug 31, 2015 at 6:00 PM


Visibility: 37 mi

Pressure: 29.82 "Hg

Humidity: 31%

Dew point: 54 °F

Location of FreisingLocation

Historic Weather in Freising — Graph

°F

Freising temperature yesterday

Maximum temperature yesterday: 91 °F (at 4:00 PM)
Minimum temperature yesterday: 60 °F (at 6:00 AM)
Average temperature yesterday: 75 °F

Past Weeks' High & Low Weather Summary

 TemperatureHumidityPressure
High91 °F (Aug 30, 4:00 PM)100% (Aug 18, 3:00 AM)30.28 "Hg (Aug 18, 3:00 AM)
Low45 °F (Aug 26, 7:00 AM)27% (Aug 26, 5:00 PM)29.63 "Hg (Aug 24, 7:00 PM)
Average66 °F72%30.02 "Hg
* Reported Aug 16 5:00 PM — Aug 31 5:00 PM, Freising, Weather by CustomWeather, © 2015

Note: Actual official high and low records may vary slightly from our data, if they occured in-between our weather recording intervals... More about our weather records

Advertising

Freising weather history for previous 24 hours

 ConditionsComfort  
Time TempWeatherWind HumidityBarometerVisibility
5:00 PM
Mon, Aug 31
89 °FPassing clouds.2 mph34%29.83 "Hg37 mi
4:00 PM89 °FPassing clouds.2 mph37%29.83 "Hg37 mi
3:00 PM89 °FPassing clouds.2 mph38%29.86 "Hg31 mi
2:00 PM87 °FPassing clouds.3 mph40%29.88 "Hg28 mi
1:00 PM86 °FSunny.5 mph41%29.90 "Hg28 mi
12:00 PM84 °FSunny.5 mph44%29.92 "Hg25 mi
11:00 AM82 °FSunny.5 mph50%29.93 "Hg28 mi
10:00 AM77 °FSunny.5 mph57%29.95 "Hg19 mi
9:00 AM72 °FSunny.3 mph75%29.97 "Hg16 mi
8:00 AM68 °FSunny.3 mph86%29.99 "Hg12 mi
7:00 AM62 °FFog.2 mph98%30.01 "Hg12 mi
5:00 AM60 °FFog.1 mph99%29.99 "Hg16 mi
4:00 AM62 °FFog.1 mph99%29.99 "Hg19 mi
3:00 AM64 °FClear.1 mph96%30.00 "Hg22 mi
2:00 AM63 °FClear.1 mph98%30.02 "Hg25 mi
1:00 AM66 °FClear.1 mph98%30.02 "Hg25 mi
12:00 AM65 °FClear.1 mph94%30.03 "Hg25 mi
11:00 PM
Sun, Aug 30
70 °FClear.1 mph83%30.02 "Hg34 mi
10:00 PM71 °FClear.1 mph84%30.01 "Hg34 mi
9:00 PM77 °FClear.1 mph64%29.99 "Hg34 mi
8:00 PM82 °FClear.1 mph57%29.97 "Hg34 mi
7:00 PM88 °FSunny.2 mph44%29.96 "Hg34 mi
6:00 PM90 °FSunny.2 mph40%29.95 "Hg28 mi
Weather by CustomWeather, © 2015

See weather overviewHow to use our weather pages